Satellite: XATCOBEO
Catalog number: 38082
Epoch time:      12088.49820746
Element set:     122
Inclination:      069.4909 deg
RA of node:       139.3545 deg
Eccentricity:    0.0766983
Arg of perigee:   349.2398 deg
Mean anomaly:     009.3058 deg
Mean motion:   14.08839458 rev/day
Decay rate:     3.9796e-04 rev/day^2
Epoch rev:             619
Checksum:              361

/EX
SB KEPS @ AMSAT  $ORB12088.W
Orbital Elements  12088.WEATHER

HR AMSAT ORBITAL ELEMENTS FOR WEATHER SATELLITES
FROM WA5QGD FORT WORTH,TX March 28, 2012
Send SUBSCRIBE KEPS/UNSUBSCRIBE KEPS to majordomo@amsat.org only
BID: ORB12088.W
TO ALL RADIO AMATEURS BT

Satellite: NOAA-10
Catalog number: 16969
Epoch time:      12087.92583847
Element set:    0871
Inclination:      098.5919 deg
RA of node:       118.3950 deg
Eccentricity:    0.0013114
Arg of perigee:   111.1037 deg
Mean anomaly:     249.1546 deg
Mean motion:   14.27536440 rev/day
Decay rate:       -2.1e-07 rev/day^2
Epoch rev:           32827
Checksum:              308

Satellite: NOAA-11
Catalog number: 19531
Epoch time:      12088.24940115
Element set:     866
Inclination:      098.7324 deg
RA of node:       175.1055 deg
Eccentricity:    0.0011996
Arg of perigee:   093.5292 deg
Mean anomaly:     266.7253 deg
Mean motion:   14.14957942 rev/day
Decay rate:      -1.81e-06 rev/day^2
Epoch rev:           21306
Checksum:              309

Satellite: NOAA-12
Catalog number: 21263
Epoch time:      12087.97691931
Element set:    0366
Inclination:      098.7346 deg
RA of node:       110.0014 deg
Eccentricity:    0.0014797
Arg of perigee:   077.4877 deg
Mean anomaly:     282.7956 deg
Mean motion:   14.25484828 rev/day
Decay rate:        1.4e-07 rev/day^2
Epoch rev:           08498
Checksum:              337

Satellite: MET-3/5
Catalog number: 21655
Epoch time:      12087.63529051
Element set:    0370
Inclination:      082.5588 deg
RA of node:       209.7868 deg
Eccentricity:    0.0013802
Arg of perigee:   161.6448 deg
Mean anomaly:     198.5164 deg
Mean motion:   13.17033813 rev/day
Decay rate:        5.1e-07 rev/day^2
Epoch rev:           99116
Checksum:              313

Satellite: MET-2/21
Catalog number: 22782
Epoch time:      12087.51646412
Element set:    0375
Inclination:      082.5440 deg
RA of node:       097.3151 deg
Eccentricity:    0.0023368
Arg of perigee:   025.4520 deg
Mean anomaly:     334.7797 deg
Mean motion:   13.83677594 rev/day
Decay rate:        1.6e-07 rev/day^2
Epoch rev:           93787
Checksum:              322

Satellite: OKEAN-4
Catalog number: 23317
Epoch time:      12087.90210227
Element set:     842
Inclination:      082.5373 deg
RA of node:       107.1902 deg
Eccentricity:    0.0019577
Arg of perigee:   260.0693 deg
Mean anomaly:     099.8314 deg
Mean motion:   14.83649980 rev/day
Decay rate:       8.12e-06 rev/day^2
Epoch rev:           94275
Checksum:              312

Satellite: NOAA-14
Catalog number: 23455
Epoch time:      12087.94902574
Element set:    0846
Inclination:      098.8283 deg
RA of node:       172.4634 deg
Eccentricity:    0.0009107
Arg of perigee:   185.9447 deg
Mean anomaly:     174.1616 deg
Mean motion:   14.13885241 rev/day
Decay rate:        3.1e-07 rev/day^2
Epoch rev:           88931
Checksum:              327

Satellite: NOAA-15
Catalog number: 25338
Epoch time:      12088.38307966
Element set:     203
Inclination:      098.6865 deg
RA of node:       076.0767 deg
Eccentricity:    0.0010463
Arg of perigee:   349.0968 deg
Mean anomaly:     010.9991 deg
Mean motion:   14.25044860 rev/day
Decay rate:        2.7e-07 rev/day^2
Epoch rev:           72134
Checksum:              321

Satellite: RESURS
Catalog number: 25394
Epoch time:      12088.54294802
Element set:      48
Inclination:      098.3163 deg
RA of node:       081.0454 deg
Eccentricity:    0.0002283
Arg of perigee:   101.8716 deg
Mean anomaly:     258.2718 deg
Mean motion:   14.24279160 rev/day
Decay rate:        7.0e-08 rev/day^2
Epoch rev:           71292
Checksum:              287

Satellite: FENGYUN1
Catalog number: 25730
Epoch time:      12087.93322038
Element set:     568
Inclination:      098.8417 deg
RA of node:       048.3574 deg
Eccentricity:    0.0017607
Arg of perigee:   240.9992 deg
Mean anomaly:     118.9405 deg
Mean motion:   14.09346464 rev/day
Decay rate:      1.214e-05 rev/day^2
Epoch rev:           66316
Checksum:              316

Satellite: OKEAN-0
Catalog number: 25860
Epoch time:      12087.94564301
Element set:    0588
Inclination:      097.9267 deg
RA of node:       052.2970 deg
Eccentricity:    0.0001495
Arg of perigee:   093.1602 deg
Mean anomaly:     266.9775 deg
Mean motion:   14.74128904 rev/day
Decay rate:       4.03e-06 rev/day^2
Epoch rev:           68260
Checksum:              318

Satellite: NOAA-16
Catalog number: 26536
Epoch time:      12087.66058142
Element set:    0687
Inclination:      099.1036 deg
RA of node:       128.4884 deg
Eccentricity:    0.0009941
Arg of perigee:   315.6708 deg
Mean anomaly:     044.3662 deg
Mean motion:   14.12718833 rev/day
Decay rate:       3.49e-06 rev/day^2
Epoch rev:           59352
Checksum:              329

